User: anonymous   Login
Location: Geroldsau
(48.7259°N, 8.2466°E)
Time: 04:52:23
(UTC+00:00)
Language:

USA 229 DEB - Orbit

View from above orbital plane
View from above orbital plane
View from above satellite
View from above satellite

Ground track
Ground track

The orbit data is extracted from the following two-line orbital elements,

1 37391U 11014B   21220.90243267 0.00000000  00000-0  00000-0 0    03
2 37391  63.4479 123.0616 0201857 357.8083   2.1917 13.40813648    02
Epoch (UTC): 08 August 2021 21:39:30
Eccentricity: 0.0201857
inclination: 63.4479°
perigee height: 955 km
apogee height: 1257 km
right ascension of ascending node: 123.0616°
argument of perigee: 357.8083°
revolutions per day: 13.40813648
mean anomaly at epoch: 2.1917°
orbit number at epoch: 0

The dashed part of the orbit path shows where the satellite is in the earth's shadow,  

DLR